Flag for Germany Weather past 2 weeks in Eisenach, Thuringia, Germany

Now
44 °F

Passing clouds.


Feels Like: 44 °F
Forecast: 34 / 61 °F
Wind: 1 mph from Northwest

Location: Meiningen

Current Time: Apr 20, 2015 at 1:30:50 AM

Latest Report: Apr 20, 2015 at 1:00 AM


Visibility: 25 mi

Pressure: 30.26 "Hg

Humidity: 59%

Dew point: 31 °F

Location of EisenachLocation

Historic Weather in Eisenach — Graph

°F

Eisenach temperature yesterday

Maximum temperature yesterday: 58 °F (at 4:00 PM)
Minimum temperature yesterday: 30 °F (at 7:00 AM)
Average temperature yesterday: 44 °F

Past Weeks' High & Low Weather Summary

 TemperatureHumidityPressure
High72 °F (Apr 15, 6:00 PM)95% (Apr 9, 6:00 AM)30.66 "Hg (Apr 9, 6:00 AM)
Low28 °F (Apr 7, 7:00 AM)25% (Apr 15, 6:00 PM)29.86 "Hg (Apr 16, 6:00 PM)
Average47 °F62%30.26 "Hg
* Reported Midnight between Apr 4 and Apr 5 — Midnight between Apr 19 and Apr 20, Eisenach, Weather by CustomWeather, © 2015

Note: Actual official high and low records may vary slightly from our data, if they occured in-between our weather recording intervals... More about our weather records

Advertising

Eisenach weather history for previous 24 hours

 ConditionsComfort  
Time TempWeatherWind HumidityBarometerVisibility
12:00 AM
Mon, Apr 20
45 °FPassing clouds.1 mph57%30.25 "Hg22 mi
10:00 PM
Sun, Apr 19
46 °FClear.3 mph56%30.23 "Hg25 mi
9:00 PM48 °FClear.3 mph50%30.20 "Hg25 mi
8:00 PM51 °FSunny.5 mph47%30.17 "Hg28 mi
7:00 PM55 °FOvercast.8 mph40%30.15 "Hg18 mi
6:00 PM58 °FSunny.6 mph39%30.12 "Hg18 mi
4:00 PM58 °FPassing clouds.2 mph32%30.12 "Hg31 mi
3:00 PM57 °FSunny.2 mph38%30.13 "Hg25 mi
2:00 PM55 °FPassing clouds.3 mph39%30.15 "Hg22 mi
1:00 PM51 °FOvercast.2 mph42%30.18 "Hg25 mi
12:00 PM49 °FScattered clouds.2 mph42%30.19 "Hg19 mi
10:00 AM44 °FOvercast.2 mph50%30.23 "Hg25 mi
9:00 AM39 °FPartly sunny.1 mph68%30.24 "Hg25 mi
8:00 AM33 °FScattered clouds.2 mph76%30.26 "Hg25 mi
7:00 AM30 °FScattered clouds.2 mph85%30.27 "Hg19 mi
6:00 AM30 °FOvercast.2 mph85%30.26 "Hg22 mi
4:00 AM31 °FClear.2 mph83%30.27 "Hg22 mi
3:00 AM33 °FClear.2 mph80%30.29 "Hg22 mi
2:00 AM35 °FPassing clouds.3 mph73%30.29 "Hg25 mi
1:00 AM36 °FPassing clouds.1 mph69%30.30 "Hg34 mi
Weather by CustomWeather, © 2015

See weather overviewHow to use our weather pages